Regional Weather Roundup
Issued by NWS Little Rock, AR

Home | Current Version | Previous Version | Text Only | Print | Product List | Glossary Off
Versions: 1 2 3 4 5 6 7 8 9 10 11 12 13 14 15 16 17 18 19 20 21 22 23 24 25 26 27 28 29 30 31 32 33 34 35 36 37 38 39 40 41 42 43 44 45 46 47 48 49 50

000
ASUS44 KLZK 230805
RWRLZK

WEATHER ROUNDUP FOR ARKANSAS
NATIONAL WEATHER SERVICE LITTLE ROCK AR
300 AM CDT WED JUL 23 2014

NOTE: "FAIR" INDICATES FEW OR NO CLOUDS BELOW 12,000 FEET WITH NO
SIGNIFICANT WEATHER AND/OR OBSTRUCTIONS TO VISIBILITY.

ARZ001-003-010-029-230900-
NORTHWEST ARKANSAS

CITY           SKY/WX    TMP DP  RH WIND       PRES   REMARKS
FAYETTEVILLE   PTCLDY    73  71  93 S5        30.11S
FORT SMITH     CLEAR     79  74  84 CALM      30.07F
HARRISON       MOCLDY    75  73  93 CALM      30.10F
BENTONVILLE    MOCLDY    75  72  88 SW3       30.11F
ROGERS         MOCLDY    77  73  87 SW5       30.11F
SILOAM SPGS    PTCLDY    75  68  78 CALM      30.11S
HIGHFILL       PTCLDY    74  73  97 SW3       30.10F FOG
$$

ARZ004-005-016-230900-
NORTH CENTRAL ARKANSAS

CITY           SKY/WX    TMP DP  RH WIND       PRES   REMARKS
BATESVILLE     CLEAR     73  68  83 CALM      30.06F
FLIPPIN        CLEAR     75  68  78 CALM      30.07F
MTN HOME       PTCLDY    74  70  87 S3        30.06F
$$

ARZ040-041-230900-
WEST CENTRAL ARKANSAS

CITY           SKY/WX    TMP DP  RH WIND       PRES   REMARKS
MENA           CLOUDY    73  72  94 CALM      30.12F
MOUNT IDA      CLEAR     69  68  96 CALM      30.08F FOG
$$

ARZ009-017-025-026-028-230900-
NORTHEAST ARKANSAS

CITY           SKY/WX    TMP DP  RH WIND       PRES   REMARKS
CORNING        FAIR      72  72 100 W3        30.05S
JONESBORO      CLEAR     72  68  87 CALM      30.04F
NEWPORT        CLEAR     73  70  91 SW3       30.06F
WALNUT RIDGE   CLEAR     73  57  56 W6        30.05R
BLYTHEVILLE    CLEAR     74  70  87 SW3       30.04F
$$

ARZ022-023-033-042-044-230900-
CENTRAL ARKANSAS

CITY           SKY/WX    TMP DP  RH WIND       PRES   REMARKS
LITTLE ROCK    CLEAR     73  69  87 SW3       30.06F
N LITTLE ROCK    N/A     75  70  86 W3        30.06F
JACKSONVILLE   CLEAR     69  68  95 W3        30.06F
SEARCY         CLEAR     69  69 100 CALM      30.07F FOG
HOT SPRINGS    CLEAR     71  69  93 NW3       30.08F
RUSSELLVILLE   MOCLDY    75  72  90 CALM      30.07F
CLINTON        FAIR      70  70 100 CALM      30.08F FOG
$$

ARZ036-230900-
EAST ARKANSAS

CITY           SKY/WX    TMP DP  RH WIND       PRES   REMARKS
WEST MEMPHIS   CLEAR     72  72 100 NW3       30.04F FOG
$$

ARZ050-053-066-070-073-230900-
SOUTHWEST ARKANSAS

CITY           SKY/WX    TMP DP  RH WIND       PRES   REMARKS
ARKADELPHIA    FAIR      70  70 100 CALM      30.07F FOG
CAMDEN         FOG       68  66  94 CALM      30.05F VSB 1
TEXARKANA      CLEAR     72  70  93 CALM      30.07F
EL DORADO      CLEAR     70  69  97 CALM      30.06F
DE QUEEN       CLEAR     70  70 100 CALM      30.06F FOG
$$

ARZ056-057-069-230900-
SOUTHEAST ARKANSAS

CITY           SKY/WX    TMP DP  RH WIND       PRES   REMARKS
PINE BLUFF     CLEAR     70  69  97 CALM      30.06F FOG
STUTTGART      CLEAR     73  70  88 CALM      30.06F
MONTICELLO     CLEAR     71  69  93 CALM      30.06R

$$




USA.gov is the U.S. government's official web portal to all federal, state and local government web resources and services.